Temperature
26 26 25 25 27 29 29 29 30 29 29 29 28 28 27 26 25 23 22 21 21 20 20 20 19 19 19 18 18 18 18 18 18 18 18 18 18 18 18 18 18 18 18 18 18 18 18 18 18
26 25 25 28 29 29 29 30 29 29 29 29 28 27 26 25 24 23 22 21 21 20 19 19 19 19 19 18 18 18 18 18 18 18 18 18 18 18 18 18 18 18 18 18 18 18 18 18 18
26 26 28 30 30 29 29 30 30 30 29 28 27 26 25 25 24 23 22 22 21 20 20 20 19 19 19 18 18 18 18 18 18 18 18 18 18 18 18 18 18 18 18 18 18 18 18 18 18
26 29 31 32 31 31 31 31 31 30 29 29 27 26 24 24 24 23 22 22 21 20 20 20 19 19 19 18 18 18 18 18 18 18 18 18 18 18 18 18 18 18 18 18 18 18 18 18 18
28 30 32 31 31 31 32 31 31 30 29 28 26 25 24 24 23 23 22 22 21 20 20 20 20 19 19 19 18 18 18 18 18 18 18 18 18 18 18 18 18 18 18 18 18 18 18 18 18
31 33 32 31 31 32 32 31 30 30 29 27 26 25 24 23 23 23 22 22 21 21 20 20 20 19 19 19 19 18 18 18 18 18 18 18 18 18 18 18 18 18 18 18 18 18 18 18 18
33 33 32 32 31 31 31 31 31 30 29 28 27 25 24 23 23 22 22 22 21 21 20 19 19 19 19 19 19 19 18 18 18 18 18 18 18 18 18 18 18 18 18 18 18 18 18 18 18
34 34 33 32 32 31 32 31 30 30 29 28 27 26 24 23 23 22 22 22 21 21 20 20 19 19 19 19 19 19 19 18 18 18 18 18 18 18 18 18 18 18 18 18 18 18 18 18 18
35 34 32 33 32 32 32 31 30 29 28 28 27 26 24 23 23 23 22 22 21 21 20 20 20 19 19 19 19 19 19 18 18 18 18 18 18 18 18 18 18 18 18 18 18 18 18 18 18
35 33 33 34 34 33 32 31 30 29 28 27 26 25 24 24 23 23 22 22 21 21 20 20 20 20 19 19 19 19 18 18 18 18 18 18 18 18 18 18 18 18 18 18 18 18 18 18 18
36 34 34 34 34 33 32 32 31 30 29 28 26 25 24 24 23 23 23 22 21 21 20 20 20 20 19 19 19 19 18 18 18 18 18 18 18 18 18 18 18 18 18 18 18 18 18 18 18
35 35 35 34 33 33 33 32 31 30 29 28 26 25 25 24 24 23 23 22 21 21 20 20 19 19 19 19 19 19 19 18 18 18 18 18 18 18 18 18 18 18 18 18 18 18 18 18 18
35 35 35 34 33 33 32 32 31 30 29 28 27 26 25 24 24 23 23 22 21 21 20 20 19 19 19 19 19 19 19 19 18 18 18 18 18 18 18 18 18 18 18 18 18 18 18 18 18
35 35 35 34 33 32 31 30 30 30 29 28 27 26 25 25 24 23 22 22 21 21 20 20 19 19 19 19 19 19 19 19 18 18 18 18 18 18 18 18 18 18 18 18 18 18 18 18 18
35 35 34 34 33 32 31 30 30 30 29 28 27 26 26 25 24 23 22 22 21 20 20 20 19 19 19 19 19 19 19 19 19 18 18 18 18 18 18 18 18 18 18 18 18 18 18 18 18
35 34 33 33 34 33 32 29 30 29 29 29 28 27 26 25 24 23 23 22 21 20 20 20 20 19 19 19 19 19 19 19 19 18 18 18 18 18 18 18 18 18 18 18 18 18 18 18 18
34 33 32 33 34 34 33 30 31 30 29 29 28 27 26 25 24 24 23 22 21 21 20 20 20 19 19 19 19 19 19 19 18 18 18 18 18 18 18 18 18 18 18 18 18 18 18 18 18
33 33 32 32 34 34 33 32 31 31 30 30 29 27 26 25 24 24 23 22 21 20 20 20 20 19 19 19 19 19 19 19 18 18 18 18 18 18 18 18 18 18 18 18 18 18 18 18 18
34 33 33 34 35 34 33 32 32 32 31 30 29 28 27 25 25 24 23 22 21 21 20 20 20 19 19 19 19 19 19 19 19 18 18 18 18 18 18 18 18 18 18 18 18 18 18 18 18
34 34 33 34 35 34 33 32 32 32 32 31 30 28 27 26 25 24 23 22 21 21 20 20 20 19 19 19 19 19 19 19 19 19 18 18 18 18 18 18 18 18 18 18 18 18 18 18 18
35 34 34 34 34 34 33 30 30 31 32 31 30 29 28 27 25 24 23 23 22 21 21 20 20 20 19 19 19 19 19 19 19 19 19 18 18 18 18 18 18 18 18 18 18 18 18 18 18
34 35 35 34 33 33 33 30 29 30 31 32 31 30 29 28 26 24 24 23 22 21 21 20 20 20 20 19 19 19 19 19 19 19 19 18 18 18 18 18 18 18 18 18 18 18 18 18 18
35 36 35 35 34 33 33 31 30 30 30 31 31 30 29 28 27 25 24 23 22 22 21 20 20 20 20 19 19 19 19 19 19 19 19 18 18 18 18 18 18 18 18 18 18 18 18 18 18
35 35 34 34 34 32 32 32 30 30 30 31 31 30 30 28 27 25 24 23 23 22 21 20 20 20 20 19 19 19 19 19 19 19 19 18 18 18 18 18 18 18 18 18 18 18 18 18 18
34 33 31 31 31 31 32 32 31 31 32 32 31 30 30 28 27 26 24 23 23 22 21 21 20 20 20 19 19 19 19 19 19 18 18 18 18 18 18 18 18 18 18 18 17 17 17 17 17
34 33 31 30 30 30 30 30 31 33 33 33 31 30 30 29 27 26 25 24 23 22 21 21 20 20 20 19 19 19 19 18 18 18 18 18 18 18 18 18 18 18 18 17 17 17 17 17 17
34 33 34 32 31 30 29 30 30 32 33 33 32 30 30 29 27 26 25 24 23 22 21 21 20 20 20 19 19 19 19 18 18 18 18 18 18 18 18 18 18 17 17 17 17 17 17 17 17
34 34 33 32 30 29 29 28 28 29 31 32 32 31 30 29 28 26 25 24 23 23 22 21 20 20 20 19 19 19 19 18 18 18 18 18 18 18 18 17 17 17 17 17 17 17 17 16 16
33 33 32 32 31 30 29 29 29 28 29 31 31 30 29 28 28 27 26 25 24 23 22 21 20 20 19 19 19 19 19 18 18 18 18 18 18 18 17 17 17 17 17 17 17 16 16 16 16
34 33 33 31 30 31 31 29 30 30 30 30 30 30 29 28 28 27 26 24 23 23 22 21 20 20 19 19 19 19 18 18 18 18 18 18 17 17 17 17 17 17 17 17 16 16 16 16 16
Wind_Speed
10 11 10 6 3 5 15 14 15 15 16 15 15 15 19 17 12 11 9 13 15 16 15 14 13 13 13 12 12 12 12 12 12 11 11 11 12 13 13 14 14 14 14 15 15 15 15 14 14
9 11 8 4 2 11 14 14 15 15 13 14 17 19 19 18 15 13 11 11 14 16 15 15 14 13 13 12 12 11 11 11 11 10 10 11 12 12 13 13 13 13 14 14 14 14 14 13 12
11 14 6 1 12 13 14 13 13 13 12 14 17 17 14 13 14 11 12 13 15 17 17 15 14 13 12 12 11 11 11 11 11 11 11 12 12 13 13 13 13 13 13 13 13 13 13 12 11
7 7 2 8 16 16 15 13 12 13 13 13 14 12 13 13 13 14 12 13 15 16 17 15 14 13 12 12 11 11 11 11 11 11 12 13 13 13 13 13 13 13 13 12 12 12 12 11 9
9 3 5 13 17 16 14 13 13 14 15 17 18 16 14 14 14 14 13 12 13 15 16 15 14 13 12 12 11 11 11 11 11 11 12 13 13 13 13 12 12 12 12 12 12 12 11 10 8
6 2 6 13 16 15 14 14 15 14 15 15 16 16 12 11 12 12 12 11 12 14 15 15 14 13 12 11 10 10 10 10 10 10 11 12 12 12 12 12 11 11 11 11 11 11 10 9 7
3 4 10 16 15 15 14 13 14 13 13 13 14 14 11 10 11 11 10 9 11 12 13 13 13 12 12 11 10 10 10 10 10 10 10 11 12 12 11 11 10 10 10 10 10 9 9 8 6
1 4 10 15 15 15 15 15 15 14 12 10 11 11 11 11 12 11 9 10 9 9 9 10 11 12 12 11 10 10 9 9 9 9 10 10 11 11 11 10 10 10 10 9 9 8 7 6 6
2 7 11 14 14 14 15 15 14 13 14 14 15 16 15 14 12 11 9 9 8 8 7 8 9 9 10 11 11 10 9 8 8 7 8 8 8 9 9 10 10 9 9 9 8 8 7 6 6
7 10 14 15 14 14 14 13 12 13 14 15 15 15 15 12 10 10 10 9 9 8 7 6 7 6 7 8 9 8 7 8 6 6 7 6 5 7 10 11 9 9 8 8 8 8 7 7 7
12 12 14 14 13 13 13 12 12 13 13 14 15 14 13 12 10 8 8 9 9 8 7 7 6 5 5 4 5 4 5 5 5 5 4 5 5 7 9 8 8 8 8 7 8 8 7 7 6
11 11 12 13 11 12 13 13 13 14 14 14 15 14 11 11 10 9 8 8 8 8 7 7 6 5 4 3 3 3 3 3 4 4 3 4 2 3 4 4 6 6 5 5 5 4 5 4 4
8 9 10 11 11 12 12 12 14 14 14 15 15 13 12 10 10 10 9 9 8 7 6 7 7 5 3 2 1 3 3 3 4 3 2 2 2 2 2 2 2 3 4 4 2 2 2 2 3
5 6 9 10 11 12 12 10 9 13 13 13 13 12 11 10 11 10 9 8 8 6 6 6 6 6 3 1 1 1 1 3 4 4 3 2 3 2 2 2 0 1 2 2 2 2 1 1 1
4 4 7 7 8 9 12 8 7 9 12 12 11 10 10 9 10 9 8 8 8 7 6 5 6 6 4 2 2 2 2 3 3 4 4 2 4 3 2 2 2 1 2 3 2 2 2 2 2
6 4 4 5 5 7 7 7 7 8 9 11 10 10 9 8 9 10 10 8 8 7 6 4 4 7 5 3 1 1 1 2 2 3 4 4 4 3 2 2 2 2 3 2 2 1 1 1 1
6 4 4 4 4 5 6 9 10 11 10 10 10 11 10 9 8 9 9 9 8 7 6 4 3 5 4 3 2 1 1 1 2 2 3 3 4 4 3 2 1 3 1 1 2 2 1 1 2
3 3 4 5 6 4 6 9 11 10 10 11 11 11 11 10 8 9 9 9 8 7 6 5 4 4 3 3 2 1 1 1 2 2 2 3 3 3 2 2 2 2 1 1 0 1 1 1 2
4 3 4 4 5 4 4 6 9 10 8 10 11 11 11 10 11 10 9 9 9 8 7 5 4 4 2 2 2 2 2 2 2 3 4 4 3 3 2 1 2 2 1 1 2 1 2 3 2
7 6 5 4 3 3 3 3 3 6 6 8 11 12 12 12 11 11 10 9 9 8 7 6 5 5 3 2 2 1 1 2 2 2 3 3 3 3 3 2 2 2 1 2 2 1 2 3 2
9 6 4 4 3 4 3 3 3 5 6 8 10 11 12 13 13 12 10 9 9 9 7 6 5 5 3 3 2 1 1 1 1 2 2 2 2 3 1 3 3 2 2 2 3 2 3 3 3
8 5 5 6 6 5 5 3 5 8 6 8 10 11 11 12 14 12 11 10 9 9 9 7 6 4 4 3 2 2 2 1 1 1 2 2 2 3 2 3 3 2 2 2 3 3 3 3 3
8 5 7 8 9 9 6 3 4 7 8 8 9 11 11 13 14 13 12 10 9 9 9 8 6 5 4 2 1 1 1 1 0 0 1 1 1 2 2 2 2 2 2 2 2 1 2 2 3
8 8 9 11 9 9 7 5 4 5 6 9 8 10 11 12 13 13 12 10 9 9 9 9 7 5 4 3 2 2 1 0 1 0 0 1 1 1 1 1 2 2 2 2 2 2 2 2 3
9 8 7 8 7 5 5 4 3 7 9 10 11 11 11 12 13 13 13 12 10 9 9 9 8 6 5 4 3 2 2 1 1 1 0 1 0 1 0 0 0 1 2 2 2 2 3 3 3
11 12 9 7 6 3 3 3 2 5 8 10 12 12 12 13 13 14 13 12 10 10 9 9 8 6 5 4 3 2 2 2 1 1 1 0 1 1 1 1 0 1 1 2 2 2 3 3 3
10 11 11 10 9 5 2 1 2 3 6 10 12 13 12 12 13 13 13 12 10 9 8 8 8 6 5 4 4 3 2 1 0 0 0 1 2 1 2 1 1 0 1 2 2 1 2 1 2
11 10 7 8 8 6 4 2 1 4 5 8 12 13 13 12 12 13 12 12 11 10 9 8 7 6 5 4 4 4 3 2 1 1 2 2 2 3 2 2 2 1 1 1 1 1 1 1 1
11 11 7 7 8 9 5 1 2 3 3 4 9 11 12 11 12 12 11 11 11 10 9 8 7 6 5 4 3 2 2 2 2 2 1 1 1 2 2 2 2 2 2 2 1 1 1 1 2
13 12 11 8 8 9 7 1 5 3 1 2 5 10 12 11 11 12 11 11 10 10 10 8 8 7 6 4 3 3 2 2 2 2 2 2 2 1 2 2 2 2 2 2 2 2 3 2 3
Wind_Direction
195 209 214 234 241 75 67 63 63 63 63 63 62 66 62 59 71 91 107 107 108 107 107 98 90 88 85 83 81 81 84 85 85 86 88 93 97 101 104 106 106 106 106 104 104 105 104 103 103
217 220 223 241 74 70 66 63 66 67 69 74 71 72 72 71 82 98 104 108 111 108 106 99 95 89 86 86 84 83 84 85 85 87 92 98 101 104 105 106 112 112 109 108 107 106 106 107 109
241 241 246 130 64 68 71 70 75 81 77 75 73 62 63 78 87 101 112 114 105 102 102 103 101 96 91 90 87 84 85 85 84 85 93 100 103 103 103 104 112 114 111 112 112 110 110 110 112
249 237 198 75 72 70 74 78 83 83 80 78 83 76 68 76 94 104 111 108 106 108 107 107 105 100 95 92 92 90 87 85 83 85 94 99 102 105 104 105 110 114 116 116 115 115 113 113 112
236 260 89 78 75 76 77 81 84 81 80 80 86 89 82 84 97 106 107 104 107 108 110 113 110 105 100 97 93 91 88 87 86 87 95 100 102 104 105 106 109 113 115 117 118 119 118 116 114
266 219 88 84 80 80 78 76 77 81 90 95 98 100 96 101 98 95 95 99 104 110 111 116 115 111 107 102 99 97 94 93 92 92 96 101 104 106 107 108 111 114 117 119 120 121 122 120 120
270 59 84 91 88 82 80 83 82 82 82 92 105 107 114 107 99 93 92 92 94 102 116 126 128 124 119 113 108 103 102 101 100 101 105 109 112 112 114 114 114 118 122 126 127 128 130 132 134
299 77 84 87 86 84 82 77 77 82 83 95 108 111 121 120 115 113 109 96 90 97 110 127 130 137 134 126 125 120 117 115 114 115 119 120 122 123 125 122 122 125 128 132 135 139 140 147 156
74 78 78 85 90 92 91 90 89 90 86 78 82 103 118 127 123 122 112 108 105 97 105 118 122 135 132 129 133 137 135 135 135 135 137 144 146 136 135 122 131 136 139 143 149 155 161 171 181
75 80 80 84 92 94 95 102 110 102 97 96 98 107 119 127 132 132 127 122 114 110 103 100 106 119 124 123 136 150 140 145 159 138 154 167 149 129 122 131 141 145 149 155 167 172 182 193 189
77 82 86 88 91 98 100 99 102 100 101 107 118 124 129 132 134 123 121 122 118 112 101 100 91 92 91 108 132 137 128 135 135 121 144 143 143 136 133 146 151 162 168 179 174 189 205 198 187
86 85 89 94 93 94 95 95 90 87 95 110 120 126 128 131 128 124 121 113 113 109 110 108 97 76 63 69 94 135 133 137 125 132 156 141 130 122 137 154 162 175 177 179 181 199 193 179 181
91 98 98 102 98 87 86 88 93 97 104 112 121 127 131 133 128 120 117 118 118 119 115 107 105 98 82 59 324 119 126 127 123 134 139 140 129 122 118 108 159 182 168 176 183 189 156 175 200
101 118 111 105 105 107 101 89 90 109 114 118 124 131 134 132 128 123 127 128 125 121 118 119 126 127 129 146 314 80 126 130 137 147 147 152 111 103 114 126 253 215 161 158 170 174 159 196 197
166 152 126 119 124 125 113 101 119 123 125 125 125 129 129 132 127 128 132 135 133 133 130 133 147 138 144 173 210 154 181 151 133 133 143 154 130 141 149 167 210 220 206 172 190 199 189 192 194
212 188 148 144 156 146 129 119 143 136 134 133 136 135 134 137 134 132 134 134 133 136 134 153 149 137 147 166 203 204 176 115 126 141 148 160 158 166 185 198 196 221 210 179 181 225 185 198 210
229 215 155 160 191 163 141 132 151 151 152 147 146 142 141 139 137 132 136 133 129 128 133 141 118 130 145 157 172 200 147 133 164 157 153 169 181 185 196 225 205 227 204 182 208 164 206 220 225
213 193 176 186 180 173 144 139 150 157 162 153 150 148 149 149 147 141 141 137 133 131 135 140 141 133 150 158 169 230 206 177 177 155 153 166 188 197 214 210 210 243 199 193 69 134 247 255 247
247 227 230 195 177 180 147 135 150 157 163 150 152 152 150 152 153 150 147 142 139 137 138 143 152 145 161 166 181 186 187 205 184 179 168 173 196 197 193 256 192 228 214 214 207 201 248 256 249
248 239 241 224 171 159 117 96 139 159 170 161 155 157 155 155 150 150 151 150 145 142 145 150 155 155 168 164 185 202 194 213 185 155 148 187 199 208 206 198 238 222 213 234 238 218 249 263 241
247 247 236 249 232 199 173 167 181 215 186 172 156 155 157 160 156 154 155 155 152 151 155 156 154 155 169 166 181 186 182 254 138 143 167 195 210 223 233 187 232 236 213 206 215 231 239 252 260
254 258 248 244 246 240 220 215 197 189 200 176 159 157 161 158 154 154 158 159 159 156 155 144 149 154 161 178 190 200 164 171 194 173 160 181 212 228 220 218 226 235 246 219 215 212 238 244 260
266 273 269 260 255 258 240 218 190 187 189 177 167 161 162 155 154 157 160 159 158 158 155 148 145 154 163 182 177 219 175 166 187 150 135 164 197 231 242 220 219 219 237 245 251 235 223 243 253
266 271 269 267 261 260 269 256 174 165 178 171 163 159 154 150 151 151 154 154 158 157 153 150 150 159 165 179 181 194 214 2 350 319 221 192 188 205 253 218 220 225 242 235 233 236 228 242 261
239 251 257 253 247 257 290 276 166 152 165 160 155 153 149 145 145 148 152 157 160 158 154 152 153 160 169 180 186 187 199 223 258 280 279 284 288 160 210 294 181 251 259 247 242 225 245 242 247
226 243 249 259 267 262 278 287 152 125 134 139 142 146 147 150 150 153 157 158 161 161 157 153 155 162 171 178 176 185 186 215 224 263 302 349 337 358 95 96 162 244 279 271 253 250 245 243 245
240 244 258 262 265 274 256 202 138 121 143 142 143 146 151 151 148 152 155 156 158 160 158 157 154 161 173 175 166 183 181 199 161 16 126 32 3 6 67 78 80 48 325 311 308 279 282 275 270
248 260 264 269 275 269 237 201 249 213 198 165 152 149 150 149 152 152 155 157 161 160 155 154 151 158 169 169 178 174 174 163 145 64 48 48 17 18 29 37 45 52 48 12 319 291 302 320 321
229 243 257 276 283 283 266 212 133 232 222 174 154 149 147 155 154 153 154 155 155 154 153 152 152 155 162 159 156 152 157 150 138 132 113 82 54 43 39 34 25 23 36 31 3 346 20 15 1
248 243 240 247 265 273 278 165 128 135 136 192 157 148 151 160 153 149 150 151 155 158 157 157 159 163 164 154 154 148 134 136 144 139 126 105 94 87 69 55 39 21 29 24 17 11 24 19 14
Height
1473 1473 1474 1477 1476 1476 1481 1477 1474 1476 1478 1481 1481 1483 1488 1491 1497 1511 1512 1512 1513 1512 1512 1512 1512 1513 1513 1513 1513 1514 1514 1514 1514 1515 1515 1516 1518 1519 1521 1522 1524 1525 1527 1528 1529 1530 1532 1534 1535
1473 1474 1477 1476 1475 1485 1487 1478 1479 1480 1482 1484 1485 1489 1492 1498 1503 1509 1512 1514 1515 1515 1514 1514 1515 1515 1515 1515 1516 1516 1517 1516 1516 1515 1515 1516 1519 1521 1522 1524 1525 1527 1529 1530 1531 1533 1534 1536 1538
1473 1475 1476 1470 1474 1485 1487 1479 1480 1482 1484 1487 1491 1495 1499 1504 1507 1511 1514 1515 1516 1516 1516 1516 1517 1517 1518 1518 1518 1519 1519 1518 1517 1516 1515 1517 1520 1522 1524 1525 1526 1529 1530 1531 1533 1534 1536 1538 1539
1475 1474 1471 1469 1478 1477 1478 1479 1481 1483 1486 1488 1493 1500 1505 1508 1511 1513 1515 1517 1518 1518 1518 1518 1519 1520 1520 1520 1521 1521 1521 1520 1519 1517 1517 1519 1522 1524 1526 1528 1529 1531 1532 1533 1534 1536 1538 1539 1541
1476 1472 1469 1476 1478 1476 1477 1479 1482 1485 1489 1493 1498 1505 1510 1513 1514 1516 1517 1519 1520 1520 1520 1520 1521 1522 1522 1522 1523 1523 1523 1523 1521 1521 1521 1522 1525 1527 1528 1530 1531 1533 1534 1535 1536 1538 1539 1541 1542
1473 1466 1475 1482 1481 1478 1479 1482 1485 1488 1492 1496 1501 1507 1513 1516 1516 1518 1520 1521 1521 1522 1522 1522 1523 1524 1524 1524 1525 1525 1525 1525 1525 1524 1525 1526 1528 1529 1531 1532 1533 1535 1536 1537 1538 1539 1541 1542 1544
1471 1466 1474 1477 1481 1482 1482 1484 1487 1490 1493 1497 1501 1507 1514 1517 1518 1520 1521 1522 1523 1524 1524 1524 1525 1526 1526 1526 1527 1527 1528 1528 1528 1528 1529 1530 1531 1532 1533 1534 1535 1536 1538 1539 1540 1541 1543 1544 1545
1465 1466 1473 1475 1482 1485 1484 1487 1490 1493 1496 1499 1501 1507 1514 1518 1520 1521 1523 1524 1525 1526 1527 1527 1528 1528 1529 1529 1529 1530 1530 1530 1531 1531 1531 1532 1533 1534 1535 1536 1537 1538 1539 1540 1541 1543 1544 1545 1546
1465 1470 1478 1477 1482 1484 1485 1489 1494 1496 1499 1502 1504 1508 1515 1518 1521 1523 1524 1526 1527 1528 1529 1530 1530 1531 1531 1531 1531 1532 1532 1533 1533 1533 1534 1535 1536 1537 1538 1539 1539 1540 1541 1542 1543 1544 1545 1546 1548
1465 1474 1476 1474 1477 1482 1486 1489 1493 1496 1501 1505 1509 1513 1516 1519 1521 1523 1525 1526 1528 1529 1530 1531 1531 1532 1533 1534 1533 1534 1535 1535 1535 1536 1536 1537 1538 1539 1540 1541 1541 1542 1543 1544 1545 1546 1547 1548 1549
1467 1472 1472 1475 1479 1482 1486 1489 1492 1496 1501 1506 1510 1515 1517 1520 1522 1524 1525 1527 1528 1530 1531 1532 1532 1533 1534 1535 1535 1536 1537 1536 1537 1538 1539 1539 1540 1541 1541 1542 1542 1543 1544 1545 1546 1547 1547 1548 1550
1470 1472 1474 1478 1481 1483 1486 1490 1493 1497 1502 1507 1511 1515 1518 1520 1522 1524 1526 1527 1529 1530 1531 1532 1532 1533 1534 1535 1536 1537 1538 1538 1538 1539 1540 1541 1541 1542 1543 1543 1543 1544 1545 1546 1547 1548 1549 1550 1550
1472 1474 1476 1479 1483 1485 1490 1492 1496 1500 1504 1508 1512 1515 1518 1520 1522 1524 1526 1528 1529 1530 1531 1532 1532 1533 1534 1535 1536 1538 1538 1539 1539 1540 1540 1541 1542 1543 1544 1544 1545 1545 1546 1547 1548 1548 1549 1550 1550
1475 1475 1477 1480 1483 1487 1491 1496 1499 1502 1505 1509 1512 1515 1518 1520 1522 1524 1526 1528 1529 1530 1531 1532 1533 1533 1534 1535 1536 1537 1539 1539 1540 1540 1541 1542 1542 1543 1543 1544 1545 1546 1547 1547 1548 1548 1549 1550 1550
1475 1476 1478 1480 1484 1486 1490 1499 1499 1502 1505 1509 1512 1515 1518 1520 1522 1524 1526 1527 1529 1530 1531 1532 1533 1533 1534 1535 1536 1538 1539 1540 1540 1540 1541 1542 1542 1543 1543 1544 1545 1546 1546 1547 1548 1548 1549 1550 1550
1475 1478 1487 1482 1480 1484 1491 1506 1499 1503 1504 1507 1511 1514 1517 1520 1522 1524 1526 1527 1529 1530 1531 1532 1533 1533 1534 1535 1536 1538 1539 1539 1540 1540 1541 1541 1542 1542 1543 1544 1545 1546 1546 1547 1547 1548 1549 1549 1550
1479 1488 1490 1485 1479 1479 1486 1498 1497 1499 1502 1505 1509 1512 1516 1519 1522 1524 1526 1527 1528 1529 1530 1532 1533 1533 1534 1535 1536 1537 1538 1539 1539 1540 1541 1541 1542 1542 1543 1543 1544 1545 1546 1546 1547 1548 1548 1549 1549
1487 1486 1488 1487 1477 1477 1483 1490 1492 1495 1498 1501 1506 1510 1514 1518 1521 1523 1525 1527 1529 1529 1530 1531 1533 1533 1534 1535 1535 1536 1537 1538 1538 1539 1540 1540 1541 1541 1542 1543 1543 1544 1545 1546 1546 1547 1547 1548 1548
1474 1482 1484 1478 1471 1476 1481 1487 1488 1492 1495 1498 1503 1508 1512 1517 1520 1522 1525 1527 1528 1529 1530 1531 1532 1533 1533 1534 1535 1536 1537 1537 1538 1538 1538 1539 1540 1540 1541 1542 1542 1543 1544 1544 1545 1545 1546 1547 1547
1473 1479 1481 1475 1469 1475 1483 1488 1486 1489 1492 1496 1500 1505 1510 1514 1518 1521 1524 1526 1528 1529 1530 1531 1532 1533 1533 1534 1535 1536 1536 1537 1537 1537 1537 1538 1538 1539 1540 1540 1541 1542 1542 1543 1543 1544 1544 1545 1546
1472 1475 1478 1479 1473 1473 1483 1494 1493 1490 1491 1494 1497 1502 1506 1511 1516 1519 1523 1525 1527 1528 1529 1530 1531 1532 1533 1533 1535 1535 1536 1536 1537 1537 1537 1537 1537 1537 1538 1538 1539 1540 1540 1541 1542 1542 1543 1543 1544
1475 1466 1469 1473 1481 1484 1482 1507 1498 1490 1491 1491 1494 1499 1503 1508 1513 1517 1521 1524 1526 1528 1529 1530 1530 1531 1532 1533 1534 1534 1535 1535 1536 1536 1536 1536 1536 1536 1536 1537 1537 1538 1538 1539 1540 1540 1541 1541 1542
1469 1464 1467 1470 1477 1481 1479 1496 1499 1489 1491 1489 1491 1495 1500 1505 1510 1515 1519 1522 1525 1527 1528 1529 1530 1530 1531 1532 1533 1533 1534 1535 1535 1535 1535 1535 1535 1535 1535 1535 1535 1536 1536 1537 1538 1538 1538 1539 1539
1465 1468 1470 1471 1475 1496 1484 1490 1499 1489 1487 1485 1489 1493 1498 1503 1508 1513 1518 1521 1524 1526 1528 1528 1528 1529 1530 1531 1532 1533 1533 1534 1534 1534 1534 1534 1534 1533 1533 1534 1534 1534 1534 1535 1535 1536 1536 1536 1537
1468 1482 1497 1501 1500 1501 1483 1486 1490 1477 1477 1480 1485 1491 1496 1501 1506 1512 1516 1520 1523 1525 1526 1527 1528 1528 1529 1530 1531 1531 1532 1532 1533 1533 1533 1533 1533 1532 1532 1532 1532 1532 1533 1533 1533 1534 1534 1534 1534
1470 1476 1499 1513 1513 1503 1492 1496 1483 1472 1473 1478 1482 1488 1494 1500 1505 1510 1514 1518 1521 1524 1525 1526 1527 1528 1529 1529 1530 1530 1531 1532 1532 1532 1532 1532 1532 1532 1531 1531 1530 1531 1531 1532 1532 1532 1532 1532 1532
1470 1473 1468 1483 1492 1504 1500 1493 1483 1475 1476 1478 1482 1488 1493 1498 1503 1508 1512 1516 1519 1522 1524 1525 1526 1527 1528 1529 1529 1530 1530 1531 1531 1531 1531 1531 1531 1531 1530 1530 1529 1529 1530 1530 1530 1530 1530 1531 1530
1464 1466 1473 1486 1503 1511 1507 1503 1503 1488 1481 1479 1481 1486 1492 1497 1502 1507 1510 1514 1518 1520 1522 1524 1525 1526 1527 1528 1529 1529 1529 1529 1530 1530 1530 1530 1530 1530 1529 1529 1529 1529 1529 1529 1529 1529 1529 1529 1528
1467 1471 1474 1480 1484 1500 1513 1507 1486 1485 1483 1482 1482 1486 1491 1496 1500 1505 1509 1513 1516 1519 1521 1523 1524 1525 1526 1527 1528 1528 1528 1529 1529 1528 1528 1528 1528 1528 1528 1528 1528 1528 1528 1528 1528 1527 1527 1527 1527
1460 1465 1471 1488 1491 1485 1494 1500 1478 1479 1481 1482 1483 1486 1491 1496 1499 1503 1508 1512 1515 1517 1519 1521 1522 1524 1525 1526 1527 1527 1527 1528 1528 1528 1527 1527 1527 1527 1527 1527 1527 1527 1527 1527 1526 1526 1526 1526 1526